EW3683 Weather Reports


time (UTC)temp
C
wind
direction
speed
KPH
gust
KPH
rain 1hr
cm
rain 24hr
cm
rain mn
cm
humidity
%
barometer
mb
20260503210059 27 310 1.6 6.4 0.00 0.00 0.00 43 1010.5
20260503204555 27 313 0.0 4.8 0.00 0.00 0.00 46 1010.7
20260503203105 26 145 0.0 4.8 0.00 0.00 0.00 49 1010.9
20260503201546 25 12 1.6 4.8 0.00 0.00 0.00 51 1011.2
20260503200043 25 329 0.0 4.8 0.00 0.00 0.00 51 1011.4
20260503194544 24 286 0.0 3.2 0.00 0.00 0.00 53 1011.7
20260503193039 23 344 1.6 4.8 0.00 0.00 0.00 51 1011.9
20260503191540 23 197 1.6 4.8 0.00 0.00 0.00 52 1012.0
20260503190037 22 199 0.0 3.2 0.00 0.00 0.00 55 1012.1
20260503184526 22 306 0.0 4.8 0.00 0.00 0.00 55 1012.3
20260503183023 21 171 0.0 3.2 0.00 0.00 0.00 58 1012.4
20260503181518 20 153 0.0 3.2 0.00 0.00 0.00 62 1012.5
20260503180014 20 298 0.0 6.4 0.00 0.00 0.00 63 1012.7
20260503174509 18 343 0.0 6.4 0.00 0.00 0.00 66 1012.9
20260503173006 18 161 0.0 3.2 0.00 0.00 0.00 68 1013.0
20260503171503 17 342 0.0 4.8 0.00 0.00 0.00 70 1013.0
20260503081602 11 228 0.0 1.6 0.00 0.00 0.00 90 1014.0
20260503071553 12 228 0.0 0.0 0.00 0.00 0.00 90 1014.0
20260503060110 13 228 0.0 0.0 0.00 0.00 0.00 85 1014.0
20260503054601 13 228 0.0 0.0 0.00 0.00 0.00 85 1014.0
20260503053047 14 228 0.0 0.0 0.00 0.00 0.00 82 1013.9
20260503051546 14 228 0.0 1.6 0.00 0.00 0.00 81 1013.7
20260503050046 15 228 0.0 0.0 0.00 0.00 0.00 79 1013.5
20260503044548 15 228 0.0 1.6 0.00 0.00 0.00 77 1013.3
20260503043048 16 228 0.0 0.0 0.00 0.00 0.00 74 1013.1
20260503041546 16 228 0.0 0.0 0.00 0.00 0.00 72 1012.9
20260503040044 17 228 0.0 1.6 0.00 0.00 0.00 72 1012.7
20260503034543 17 228 0.0 1.6 0.00 0.00 0.00 70 1012.5
20260503033042 18 228 0.0 0.0 0.00 0.00 0.00 67 1012.1
20260503031545 20 228 0.0 1.6 0.00 0.00 0.00 64 1011.9
20260503030046 20 228 0.0 1.6 0.00 0.00 0.00 57 1011.7
20260503024540 21 243 0.0 1.6 0.00 0.00 0.00 55 1011.8
20260503023040 22 274 0.0 1.6 0.00 0.00 0.00 52 1011.7
20260503021541 22 123 0.0 4.8 0.00 0.00 0.00 50 1011.6
20260503020039 22 165 0.0 3.2 0.00 0.00 0.00 52 1011.7
20260503014538 23 225 0.0 4.8 0.00 0.00 0.00 49 1011.7
20260503013038 23 178 0.0 3.2 0.00 0.00 0.00 49 1011.8
20260503011536 23 229 0.0 3.2 0.00 0.00 0.00 49 1011.7
20260503010038 23 305 0.0 3.2 0.00 0.00 0.00 50 1011.7
20260503004537 23 166 0.0 4.8 0.00 0.00 0.00 49 1011.7
20260503003037 23 170 0.0 4.8 0.00 0.00 0.00 53 1011.8
20260503001534 23 151 1.6 4.8 0.00 0.00 0.00 50 1011.8
20260503000033 23 271 0.0 4.8 0.00 0.00 0.00 52 1012.0
20260502234546 23 319 0.0 6.4 0.00 0.00 0.00 52 1012.0
20260502233030 24 288 0.0 4.8 0.00 0.00 0.00 49 1012.1
20260502231527 24 317 0.0 4.8 0.00 0.00 0.00 49 1012.3
20260502230027 24 172 1.6 6.4 0.00 0.00 0.00 50 1012.6
20260502224523 24 126 0.0 4.8 0.00 0.00 0.00 50 1012.8
20260502223021 23 196 1.6 6.4 0.00 0.00 0.00 52 1013.0
20260502221519 23 206 1.6 4.8 0.00 0.00 0.00 53 1013.2
20260502220015 22 244 0.0 4.8 0.00 0.00 0.00 55 1013.4
20260502214525 22 209 1.6 4.8 0.00 0.00 0.00 56 1013.6
20260502213005 21 144 0.0 6.4 0.00 0.00 0.00 58 1014.0
20260502211601 20 91 1.6 6.4 0.00 0.00 0.00 61 1014.1